Flag for Switzerland Weather past 2 weeks in Stäfa, Zurich, Switzerland

Now
32 °F

Chilly.


Feels Like: 23 °F
Forecast: 16 / 36 °F
Wind: 10 mph from West

Location: Zurich Town / Ville.

Current Time: Feb 1, 2015 at 4:37:28 PM

Latest Report: Feb 1, 2015 at 4:00 PM


Visibility: N/A

Pressure: 29.44 "Hg

Humidity: 91%

Dew point: 29 °F

Location of StäfaLocation

Historic Weather in Stäfa — Graph

°F

Stäfa temperature yesterday

Maximum temperature yesterday: 37 °F (at 3:00 PM)
Minimum temperature yesterday: 31 °F (at 6:00 AM)
Average temperature yesterday: 33 °F

Past Weeks' High & Low Weather Summary

 TemperatureHumidityPressure
High37 °F (Jan 31, 3:00 PM)100% (Jan 17, 4:00 PM)30.47 "Hg (Jan 17, 4:00 PM)
Low26 °F (Jan 26, 7:00 AM)57% (Jan 31, 3:00 PM)28.88 "Hg (Jan 30, 1:00 AM)
Average32 °F88%29.89 "Hg
* Reported Jan 17 3:00 PM — Feb 1 3:00 PM, Stäfa, Weather by CustomWeather, © 2014

Note: Actual official high and low records may vary slightly from our data, if they occured in-between our weather recording intervals... More about our weather records

Advertising

Stäfa weather history for previous 24 hours

 ConditionsComfort  
Time TempWeatherWind HumidityBarometerVisibility
3:00 PM
Feb 1
31 °FChilly.8 mph93%29.41 "HgN/A
2:00 PM30 °FChilly.5 mph96%29.41 "HgN/A
1:00 PM32 °FChilly.12 mph74%29.38 "HgN/A
12:00 PM33 °FChilly.10 mph74%29.38 "HgN/A
11:00 AM32 °FChilly.9 mph80%29.38 "HgN/A
10:00 AM32 °FChilly.5 mph87%29.35 "HgN/A
9:00 AM31 °FChilly.7 mph90%29.32 "HgN/A
8:00 AM30 °FChilly.8 mph95%29.32 "HgN/A
7:00 AM30 °FIce fog.6 mph96%29.29 "HgN/A
6:00 AM30 °FChilly.12 mph94%29.26 "HgN/A
5:00 AM30 °FChilly.9 mph93%29.26 "HgN/A
4:00 AM32 °FChilly.6 mph71%29.23 "HgN/A
3:00 AM32 °FChilly.12 mph72%29.23 "HgN/A
2:00 AM32 °FChilly.9 mph81%29.26 "HgN/A
1:00 AM31 °FChilly.3 mph91%29.23 "HgN/A
12:00 AM31 °FChilly.3 mph90%29.23 "HgN/A
11:00 PM
Jan 31
32 °FChilly.3 mph91%29.23 "HgN/A
10:00 PM33 °FChilly.6 mph89%29.23 "HgN/A
9:00 PM32 °FChilly.3 mph95%29.23 "HgN/A
8:00 PM32 °FChilly.5 mph95%29.23 "HgN/A
7:00 PM32 °FChilly.2 mph93%29.21 "HgN/A
6:00 PM31 °FChilly.6 mph95%29.21 "HgN/A
5:00 PM32 °FChilly.5 mph89%29.18 "HgN/A
4:00 PM34 °FChilly.9 mph74%29.15 "HgN/A
Weather by CustomWeather, © 2014

See weather overviewHow to use our weather pages